This is the latest recevied weather packets stored in our database for station/object KY4OP-13. If no packets are shown the sender has not sent any weather packets the latest 10 day(s).
| Time | Temp. | Humidity | Pressure | Rain* | Wind** | Luminosity | Snow |
|---|---|---|---|---|---|---|---|
| 1777941935 | 18.89° C | 59% | 1013.1 hPa | 0 mm | - | - | - |
| 1777941632 | 18.89° C | 58% | 1013.2 hPa | 0 mm | - | - | - |
| 1777941329 | 18.89° C | 58% | 1013 hPa | 0 mm | - | - | - |
| 1777941026 | 19.44° C | 57% | 1013.1 hPa | 0 mm | - | - | - |
| 1777940726 | 19.44° C | 56% | 1013 hPa | 0 mm | - | - | - |
| 1777940426 | 19.44° C | 55% | 1012.9 hPa | 0 mm | - | - | - |
| 1777940123 | 19.44° C | 55% | 1013 hPa | 0 mm | - | - | - |
| 1777939820 | 20° C | 54% | 1012.9 hPa | 0 mm | - | - | - |
| 1777939517 | 20.56° C | 53% | 1012.8 hPa | 0 mm | - | - | - |
| 1777939215 | 20.56° C | 52% | 1012.9 hPa | 0 mm | - | - | - |
| 1777938911 | 20.56° C | 51% | 1012.7 hPa | 0 mm | - | - | - |
| 1777938607 | 20.56° C | 50% | 1012.6 hPa | 0 mm | - | - | - |
| 1777938305 | 20.56° C | 49% | 1012.6 hPa | 0 mm | - | - | - |
| 1777938001 | 21.11° C | 53% | 1012.6 hPa | 0 mm | - | - | - |
| 1777937697 | 21.67° C | 48% | 1013 hPa | 0 mm | - | - | - |
| 1777937394 | 21.67° C | 47% | 1012.9 hPa | 0 mm | - | - | - |
| 1777937091 | 21.67° C | 47% | 1012.7 hPa | 0 mm | - | - | - |
| 1777936789 | 22.22° C | 44% | 1012.9 hPa | 0 mm | - | - | - |
| 1777936485 | 22.22° C | 44% | 1012.7 hPa | 0 mm | - | - | - |
| 1777936181 | 22.22° C | 43% | 1012.6 hPa | 0 mm | - | - | - |
| 1777935878 | 22.22° C | 42% | 1012.5 hPa | 0 mm | - | - | - |
| 1777935577 | 22.78° C | 43% | 1012.5 hPa | 0 mm | - | - | - |
| 1777935273 | 22.78° C | 42% | 1012.3 hPa | 0 mm | - | - | - |
| 1777934971 | 22.78° C | 44% | 1012.5 hPa | 0 mm | - | - | - |
| 1777934667 | 22.78° C | 42% | 1012.5 hPa | 0 mm | - | - | - |
* Rain latest hour (hover to see other rain measurements)
** Current wind speed in m/s (hover to see current wind gust speed)